Time,TemperatureF,DewpointF,PressureIn,WindDirection,WindDirectionDegrees,WindSpeedMPH,WindSpeedGustMPH,Humidity,HourlyPrecipIn,Conditions,Clouds,dailyrainin,SolarRadiationWatts/m^2,SoftwareType,DateUTC
2013-10-06 00:44:00,65.0,65.0,-100.00,NNW,343,2.0,3.0,99,0.00,,,0.01,0.000000,,2013-10-06 04:44:00,
2013-10-06 00:54:00,65.0,65.0,-100.00,NNW,343,2.0,3.0,99,0.00,,,0.01,0.000000,,2013-10-06 04:54:00,
2013-10-06 01:03:00,65.0,65.0,-100.00,NNW,343,2.0,3.0,99,0.00,,,0.01,0.000000,,2013-10-06 05:03:00,
2013-10-06 01:43:00,66.0,66.0,-100.00,SE,124,1.0,4.0,99,0.02,,,0.03,0.000000,,2013-10-06 05:43:00,
2013-10-06 01:52:00,66.0,66.0,-100.00,SE,124,1.0,4.0,99,0.02,,,0.03,0.000000,,2013-10-06 05:52:00,
2013-10-06 02:02:00,66.0,66.0,-100.00,SE,124,1.0,4.0,99,0.02,,,0.03,0.000000,,2013-10-06 06:02:00,
2013-10-06 02:42:00,66.0,66.0,-100.00,SE,138,2.0,4.0,99,0.00,,,0.03,0.000000,,2013-10-06 06:42:00,
2013-10-06 02:52:00,66.0,66.0,-100.00,SE,138,2.0,4.0,99,0.00,,,0.03,0.000000,,2013-10-06 06:52:00,
2013-10-06 03:02:00,66.0,66.0,-100.00,SE,138,2.0,4.0,99,0.00,,,0.03,0.000000,,2013-10-06 07:02:00,
2013-10-06 03:43:00,66.0,65.0,-100.00,SE,142,1.0,5.0,98,0.00,,,0.03,0.000000,,2013-10-06 07:43:00,
2013-10-06 03:52:00,66.0,65.0,-100.00,SE,142,1.0,5.0,98,0.00,,,0.03,0.000000,,2013-10-06 07:52:00,
2013-10-06 04:03:00,66.0,65.0,-100.00,SE,142,1.0,5.0,98,0.00,,,0.03,0.000000,,2013-10-06 08:03:00,
2013-10-06 04:42:00,65.0,64.0,-100.00,SSE,156,1.0,4.0,97,0.00,,,0.03,0.000000,,2013-10-06 08:42:00,
2013-10-06 04:53:00,65.0,64.0,-100.00,SSE,156,1.0,4.0,97,0.00,,,0.03,0.000000,,2013-10-06 08:53:00,
2013-10-06 05:01:00,65.0,64.0,-100.00,SSE,156,1.0,4.0,97,0.00,,,0.03,0.000000,,2013-10-06 09:01:00,
2013-10-06 05:43:00,65.0,64.0,-100.00,WNW,286,1.0,4.0,97,0.00,,,0.03,0.000000,,2013-10-06 09:43:00,
2013-10-06 05:53:00,65.0,64.0,-100.00,WNW,286,1.0,4.0,97,0.00,,,0.03,0.000000,,2013-10-06 09:53:00,
2013-10-06 06:03:00,65.0,64.0,-100.00,WNW,286,1.0,4.0,97,0.00,,,0.03,0.000000,,2013-10-06 10:03:00,
2013-10-06 06:43:00,65.0,65.0,-100.00,SSE,158,3.0,6.0,99,0.03,,,0.06,0.000000,,2013-10-06 10:43:00,
2013-10-06 06:53:00,65.0,65.0,-100.00,SSE,158,3.0,6.0,99,0.03,,,0.06,0.000000,,2013-10-06 10:53:00,
2013-10-06 07:03:00,65.0,65.0,-100.00,SSE,158,3.0,6.0,99,0.03,,,0.06,0.000000,,2013-10-06 11:03:00,
2013-10-06 07:42:00,66.0,66.0,-100.00,SSE,152,4.0,9.0,99,0.01,,,0.07,0.000000,,2013-10-06 11:42:00,
2013-10-06 07:52:00,66.0,66.0,-100.00,SSE,152,4.0,9.0,99,0.01,,,0.07,0.000000,,2013-10-06 11:52:00,
2013-10-06 08:02:00,66.0,66.0,-100.00,SSE,152,4.0,9.0,99,0.01,,,0.07,0.000000,,2013-10-06 12:02:00,
2013-10-06 08:42:00,66.0,65.0,-100.00,SSW,208,3.0,6.0,98,0.00,,,0.07,14.000000,,2013-10-06 12:42:00,
2013-10-06 08:52:00,66.0,65.0,-100.00,SSW,208,3.0,6.0,98,0.00,,,0.07,14.000000,,2013-10-06 12:52:00,
2013-10-06 09:02:00,66.0,65.0,-100.00,SSW,208,3.0,6.0,98,0.00,,,0.07,14.000000,,2013-10-06 13:02:00,
2013-10-06 09:42:00,67.0,66.0,-100.00,SSW,210,2.0,6.0,97,0.00,,,0.07,57.000000,,2013-10-06 13:42:00,
2013-10-06 09:52:00,67.0,66.0,-100.00,SSW,210,2.0,6.0,97,0.00,,,0.07,57.000000,,2013-10-06 13:52:00,
2013-10-06 10:02:00,67.0,66.0,-100.00,SSW,210,2.0,6.0,97,0.00,,,0.07,57.000000,,2013-10-06 14:02:00,
2013-10-06 10:42:00,71.0,67.0,-100.00,South,180,5.0,11.0,86,0.00,,,0.07,231.000000,,2013-10-06 14:42:00,
2013-10-06 10:52:00,71.0,67.0,-100.00,South,180,5.0,11.0,86,0.00,,,0.07,231.000000,,2013-10-06 14:52:00,
2013-10-06 11:02:00,71.0,67.0,-100.00,South,180,5.0,11.0,86,0.00,,,0.07,231.000000,,2013-10-06 15:02:00,
2013-10-06 11:44:00,76.0,67.0,-100.00,SSE,165,7.0,13.0,74,0.00,,,0.07,494.000000,,2013-10-06 15:44:00,
2013-10-06 11:54:00,76.0,67.0,-100.00,SSE,165,7.0,13.0,74,0.00,,,0.07,494.000000,,2013-10-06 15:54:00,
2013-10-06 12:03:00,76.0,67.0,-100.00,SSE,165,7.0,13.0,74,0.00,,,0.07,494.000000,,2013-10-06 16:03:00,
2013-10-06 12:43:00,79.0,67.0,-100.00,South,186,6.0,14.0,66,0.00,,,0.07,599.000000,,2013-10-06 16:43:00,
2013-10-06 12:53:00,79.0,67.0,-100.00,South,186,6.0,14.0,66,0.00,,,0.07,599.000000,,2013-10-06 16:53:00,
2013-10-06 13:02:00,79.0,67.0,-100.00,South,186,6.0,14.0,66,0.00,,,0.07,599.000000,,2013-10-06 17:02:00,
2013-10-06 13:42:00,80.0,66.0,-100.00,South,172,8.0,19.0,62,0.00,,,0.07,498.000000,,2013-10-06 17:42:00,
2013-10-06 13:53:00,80.0,66.0,-100.00,South,172,8.0,19.0,62,0.00,,,0.07,498.000000,,2013-10-06 17:53:00,
2013-10-06 14:02:00,80.0,66.0,-100.00,South,172,8.0,19.0,62,0.00,,,0.07,498.000000,,2013-10-06 18:02:00,
2013-10-06 14:43:00,79.0,65.0,-100.00,South,184,7.0,18.0,63,0.00,,,0.07,453.000000,,2013-10-06 18:43:00,
2013-10-06 14:52:00,79.0,65.0,-100.00,South,184,7.0,18.0,63,0.00,,,0.07,453.000000,,2013-10-06 18:52:00,
2013-10-06 15:01:00,79.0,65.0,-100.00,South,184,7.0,18.0,63,0.00,,,0.07,453.000000,,2013-10-06 19:01:00,
2013-10-06 15:42:00,81.0,65.0,-100.00,SSW,208,5.0,13.0,59,0.00,,,0.07,417.000000,,2013-10-06 19:42:00,
2013-10-06 15:53:00,81.0,65.0,-100.00,SSW,208,5.0,13.0,59,0.00,,,0.07,417.000000,,2013-10-06 19:53:00,
2013-10-06 16:02:00,81.0,65.0,-100.00,SSW,208,5.0,13.0,59,0.00,,,0.07,417.000000,,2013-10-06 20:02:00,
2013-10-06 16:42:00,82.0,64.0,-100.00,South,181,8.0,16.0,54,0.00,,,0.07,404.000000,,2013-10-06 20:42:00,
2013-10-06 16:53:00,82.0,64.0,-100.00,South,181,8.0,16.0,54,0.00,,,0.07,404.000000,,2013-10-06 20:53:00,
2013-10-06 17:01:00,82.0,64.0,-100.00,South,181,8.0,16.0,54,0.00,,,0.07,404.000000,,2013-10-06 21:01:00,
2013-10-06 17:44:00,82.0,63.0,-100.00,SSW,199,6.0,16.0,52,0.00,,,0.07,365.000000,,2013-10-06 21:44:00,
2013-10-06 17:55:00,82.0,63.0,-100.00,SSW,199,6.0,16.0,52,0.00,,,0.07,365.000000,,2013-10-06 21:55:00,
2013-10-06 18:04:00,82.0,63.0,-100.00,SSW,199,6.0,16.0,52,0.00,,,0.07,365.000000,,2013-10-06 22:04:00,
2013-10-06 18:43:00,78.0,61.0,-100.00,South,172,6.0,15.0,55,0.00,,,0.07,148.000000,,2013-10-06 22:43:00,
2013-10-06 18:54:00,78.0,61.0,-100.00,South,172,6.0,15.0,55,0.00,,,0.07,148.000000,,2013-10-06 22:54:00,
2013-10-06 19:03:00,78.0,61.0,-100.00,South,172,6.0,15.0,55,0.00,,,0.07,148.000000,,2013-10-06 23:03:00,
2013-10-06 19:42:00,73.0,59.0,-100.00,SSE,157,3.0,11.0,62,0.00,,,0.06,10.000000,,2013-10-06 23:42:00,
2013-10-06 19:53:00,73.0,59.0,-100.00,SSE,157,3.0,11.0,62,0.00,,,0.06,10.000000,,2013-10-06 23:53:00,
2013-10-06 20:02:00,73.0,59.0,-100.00,SSE,157,3.0,11.0,62,0.00,,,0.06,10.000000,,2013-10-07 00:02:00,
2013-10-06 20:42:00,70.0,60.0,-100.00,South,185,2.0,8.0,71,0.00,,,0.06,0.000000,,2013-10-07 00:42:00,
2013-10-06 20:52:00,70.0,60.0,-100.00,South,185,2.0,8.0,71,0.00,,,0.06,0.000000,,2013-10-07 00:52:00,
2013-10-06 21:02:00,70.0,60.0,-100.00,South,185,2.0,8.0,71,0.00,,,0.06,0.000000,,2013-10-07 01:02:00,
2013-10-06 21:42:00,69.0,61.0,-100.00,SSE,160,3.0,6.0,75,0.00,,,0.06,0.000000,,2013-10-07 01:42:00,
2013-10-06 21:53:00,69.0,61.0,-100.00,SSE,160,3.0,6.0,75,0.00,,,0.06,0.000000,,2013-10-07 01:53:00,
2013-10-06 22:02:00,69.0,61.0,-100.00,SSE,160,3.0,6.0,75,0.00,,,0.06,0.000000,,2013-10-07 02:02:00,
2013-10-06 22:42:00,72.0,59.0,-100.00,South,174,7.0,14.0,63,0.00,,,0.06,0.000000,,2013-10-07 02:42:00,
2013-10-06 22:53:00,72.0,59.0,-100.00,South,174,7.0,14.0,63,0.00,,,0.06,0.000000,,2013-10-07 02:53:00,
2013-10-06 23:02:00,72.0,59.0,-100.00,South,174,7.0,14.0,63,0.00,,,0.06,0.000000,,2013-10-07 03:02:00,
2013-10-06 23:44:00,72.0,57.0,-100.00,South,173,9.0,17.0,60,0.00,,,0.06,0.000000,,2013-10-07 03:44:00,
2013-10-06 23:54:00,72.0,57.0,-100.00,South,173,9.0,17.0,60,0.00,,,0.06,0.000000,,2013-10-07 03:54:00,